Location: *
(47.8307°S, 178.3954°E)
Time: 08:44:43
(UTC+00:00)

Lacrosse 5 rocket - Pass Details

Date: 12 August 2024
Orbit: 432 x 567 km, 57.0° (Epoch: 18 September)

Event Time Altitude Azimuth Distance (km) Brightness Sun altitude
Exits shadow 16:18:06 27° 136° (SE) 1,091 3.2 -29.7°
Drops below altitude 10° 16:20:05 10° 130° (SE) 1,833 4.7 -29.4°
Sets 16:22:17 0° 127° (SE) 2,706 5.8 -29.0°
